Goodland, KS

3:00 PM MDT on June 26, 2017 (GMT -0600)
Renner-Goodland Municipal

Weather History for KGLD - January, 2014

Change the Weather History Date:

Monday, January 20, 2014

  Actual Average Record
Temperature  
Mean Temperature 32 °F 30 °F  
Max Temperature 50 °F 42 °F 77 °F (1896)
Min Temperature 13 °F 17 °F -13 °F (1935)
Degree Days  
Heating Degree Days 33 35  
Month to date heating degree days 661 702  
Since 1 July heating degree days 3027 3109  
Cooling Degree Days 0 0  
Month to date cooling degree days 0 0  
Year to date cooling degree days 0 0  
Moisture  
Dew Point 13 °F    
Average Humidity 45    
Maximum Humidity 67    
Minimum Humidity 23    
Precipitation  
Precipitation 0.00 in 0.01 in 0.39 in (1945)
Month to date precipitation 0.12 0.23  
Year to date precipitation 0.12 0.23  
Snow  
Snow 0.00 in 0.20 in - ()
Month to date snowfall 3.1 3.6  
Since 1 July snowfall 9.9 16.3  
Snow Depth 0.00 in    
Sea Level Pressure  
Sea Level Pressure 30.24 in    
Wind  
Wind Speed 17 mph (NNW)    
Max Wind Speed 36 mph    
Max Gust Speed 44 mph    
Visibility 10 miles    
Events      
T = Trace of Precipitation, MM = Missing Value Source: NWS Daily Summary

Daily Weather History Graph

Daily Weather History Graph

Search for Another Location

Airport or City:

Trip Planner

Search our weather history database for the weather conditions in past years. The results will help you decide how hot, cold, wet, or windy it might be!

Date:

Astronomy

Jan. 20, 2014 Rise Set
Actual Time 7:02 AM MST 4:53 PM MST
Civil Twilight 6:33 AM MST 5:22 PM MST
Nautical Twilight 6:00 AM MST 5:55 PM MST
Astronomical Twilight 5:28 AM MST 6:27 PM MST
Moon 9:28 PM MST (1/20) 9:05 AM MST (1/20)
Length of Visible Light 10h 48m
Length of Day
9h 50m
Waning Gibbous, 82% of the Moon is Illuminated
Jan 20
Waning Gibbous
Jan 23
Last Quarter
Jan 30
New
Feb 6
First Quarter
Feb 14
Full

Hourly Weather History & Observations

Time (MST) Temp. Windchill Dew Point Humidity Pressure Visibility Wind Dir Wind Speed Gust Speed Precip Events Conditions
12:53 AM 30.9 °F 22.8 °F 10.0 °F 42% 29.91 in 10.0 mi WNW 9.2 mph - N/A   Clear
1:53 AM 30.9 °F 22.2 °F 12.0 °F 46% 29.94 in 10.0 mi West 10.4 mph - N/A   Clear
2:53 AM 28.9 °F 19.8 °F 12.0 °F 49% 29.95 in 10.0 mi West 10.4 mph - N/A   Clear
3:53 AM 33.1 °F 23.4 °F 12.9 °F 43% 29.95 in 10.0 mi WNW 13.8 mph - N/A   Clear
4:53 AM 30.0 °F 19.1 °F 12.9 °F 49% 30.02 in 10.0 mi NW 15.0 mph - N/A   Clear
5:53 AM 33.1 °F 23.0 °F 12.9 °F 43% 30.08 in 10.0 mi NNW 15.0 mph - N/A   Clear
6:53 AM 35.1 °F 24.8 °F 14.0 °F 42% 30.13 in 10.0 mi NNW 17.3 mph - N/A   Clear
7:53 AM 35.1 °F 25.2 °F 16.0 °F 46% 30.20 in 10.0 mi North 16.1 mph - N/A   Clear
8:53 AM 36.0 °F 26.7 °F 17.1 °F 46% 30.25 in 10.0 mi North 15.0 mph - N/A   Clear
9:53 AM 41.0 °F 30.9 °F 18.0 °F 40% 30.27 in 10.0 mi NNW 24.2 mph 31.1 mph N/A   Clear
10:53 AM 48.0 °F - 19.0 °F 32% 30.26 in 10.0 mi NNW 27.6 mph 32.2 mph N/A   Clear
11:53 AM 48.0 °F - 12.0 °F 24% 30.26 in 10.0 mi NNW 26.5 mph 36.8 mph N/A   Clear
12:53 PM 48.9 °F - 14.0 °F 25% 30.25 in 10.0 mi North 32.2 mph 39.1 mph N/A   Clear
1:53 PM 48.9 °F - 14.0 °F 25% 30.25 in 10.0 mi North 32.2 mph 41.4 mph N/A   Clear
2:53 PM 46.9 °F - 12.0 °F 24% 30.28 in 6.0 mi North 32.2 mph 41.4 mph N/A   Haze
3:53 PM 44.1 °F 35.0 °F 10.9 °F 26% 30.31 in 5.0 mi North 24.2 mph 40.3 mph N/A   Haze
4:53 PM 39.9 °F 30.0 °F 10.9 °F 31% 30.35 in 8.0 mi North 21.9 mph - N/A   Overcast
5:53 PM 36.0 °F 26.7 °F 12.0 °F 37% 30.37 in 10.0 mi NNW 15.0 mph - N/A   Clear
6:53 PM 32.0 °F 21.6 °F 12.0 °F 44% 30.38 in 10.0 mi NNW 15.0 mph - N/A   Clear
7:53 PM 30.0 °F 21.1 °F 12.0 °F 47% 30.42 in 10.0 mi North 10.4 mph - N/A   Clear
8:53 PM 25.0 °F 15.5 °F 12.0 °F 58% 30.44 in 10.0 mi WNW 9.2 mph - N/A   Clear
9:53 PM 19.9 °F 13.4 °F 10.0 °F 65% 30.43 in 10.0 mi NNW 4.6 mph - N/A   Clear
10:53 PM 23.0 °F - 10.9 °F 60% 30.44 in 10.0 mi Calm Calm - N/A   Clear
11:53 PM 14.0 °F 8.2 °F 6.1 °F 71% 30.46 in 10.0 mi SW 3.5 mph - N/A   Clear